Station BWSF1 - Blackwater Sound, FL Image indicating link to RSS feed of recent meteorological observations for station BWSF1


Conditions at BWSF1 as of
(3:00 pm EDT)
1900 GMT on 05/22/2024:
     

Click on the graph icon in the table below to see a time series plot of the last five days of that observation.

5-day plot - Wave Height Wave Height (WVHT): 33.5 ft
5-day plot - Water Temperature Water Temperature (WTMP): 87.6 °F
5-day plot - Salinity Salinity (SAL): 29.31 psu
5-day plot - Tide (above MLLW) Tide (above MLLW) (TIDE): 0.17 ft
Previous observations
TIME
(EDT)
5-day plot - Wind Direction
WDIR
 
5-day plot - Wind Speed
WSPD
kts
5-day plot - Wind Gust
GST
kts
5-day plot - Wave Height
WVHT
ft
5-day plot - Dominant Wave Period
DPD
sec
5-day plot - Average Wave Period
APD
sec
5-day plot - Mean Wave Direction
MWD
 
5-day plot - Atmospheric Pressure
PRES
in
5-day plot - Pressure Tendency
PTDY
in
5-day plot - Air Temperature
ATMP
°F
5-day plot - Water Temperature
WTMP
°F
5-day plot - Dew Point
DEWP
°F
5-day plot - Salinity
SAL
psu
5-day plot - Visibility
VIS
nmi
5-day plot - Tide (above MLLW)
TIDE
ft
2024-05-22 02:00 pm--- 33.5------ 86.9- 29.31- 0.17
2024-05-22 01:00 pm--- 33.5------ 86.0- 29.31- 0.17
2024-05-22 12:00 pm--- 33.5------ 85.5- 29.37- 0.15
2024-05-22 11:00 am--- 33.1------ 85.1- 29.39- 0.13
2024-05-22 10:00 am--- 33.1------ 85.1- 29.41- 0.09
2024-05-22 09:00 am--- 33.1------ 85.1- 29.40- 0.09
2024-05-22 08:00 am--- 33.1------ 85.5- 29.41- 0.08
2024-05-22 07:00 am--- 33.1------ 85.6- 29.44- 0.09
2024-05-22 06:00 am--- 33.1------ 86.0- 29.46- 0.11
2024-05-22 05:00 am--- 33.1------ 86.2- 29.48- 0.13
2024-05-22 04:00 am--- 33.5------ 86.4- 29.51- 0.15
2024-05-22 03:00 am--- 33.5------ 86.5- 29.51- 0.15
2024-05-22 02:00 am--- 33.5------ 86.9- 29.56- 0.16
2024-05-22 01:00 am--- 33.5------ 87.1- 29.54- 0.16
2024-05-22 12:00 am--- 33.1------ 87.4- 29.53- 0.13
2024-05-21 11:00 pm--- 33.1------ 87.8- 29.51- 0.11
2024-05-21 10:00 pm--- 33.1------ 88.2- 29.53- 0.07
2024-05-21 05:00 pm--- 33.1------ 88.3- 29.54- 0.11
2024-05-21 04:00 pm--- 33.5------ 88.3- 29.52- 0.16

Ocean Conditions at BWSF1 as of
(3:00 pm EDT)
1900 GMT on 05/22/2024:

These oceanographic data are displayed in rounded times.

     

Click on the graph icon in the table below to see a time series plot of the last five days of that observation.

Depth (DEPTH): 4.9 ft
5-day plot - Ocean Temperature Ocean Temperature (OTMP):87.53 °F
5-day plot - Salinity Salinity (SAL):29.31 psu
Previous observations
TIME
(EDT)
DEPTH
ft
5-day plot - Ocean Temperature
OTMP
°F
5-day plot - Conductivity
COND
mS/cm
5-day plot - Salinity
SAL
psu
5-day plot - Oxygen Concentration
O2%
%
5-day plot - Oxygen Concentration
O2PPM
ppm
5-day plot - Chlorophyll
CLCON
ug/l
5-day plot - Turbidity
TURB
FTU
5-day plot - pH
PH
 
5-day plot - Eh
EH
mv
2024-05-22 02:00 pm 4.986.83-29.31------
2024-05-22 01:00 pm 4.986.05-29.31------
2024-05-22 12:00 pm 4.985.48-29.37------
2024-05-22 11:00 am 4.985.10-29.39------
2024-05-22 10:00 am 4.985.01-29.41------
2024-05-22 09:00 am 4.985.10-29.40------
2024-05-22 08:00 am 4.985.51-29.41------
2024-05-22 07:00 am 4.985.71-29.44------
2024-05-22 06:00 am 4.985.91-29.46------
2024-05-22 05:00 am 4.986.09-29.48------
2024-05-22 04:00 am 4.986.27-29.51------
2024-05-22 03:00 am 4.986.50-29.51------
2024-05-22 02:00 am 4.986.88-29.56------
2024-05-22 01:00 am 4.987.15-29.54------
2024-05-22 12:00 am 4.987.49-29.53------
2024-05-21 11:00 pm 4.987.78-29.51------
2024-05-21 10:00 pm 4.988.09-29.53------
2024-05-21 05:00 pm 4.988.38-29.54------
2024-05-21 04:00 pm 4.988.41-29.52------

Rainfall at BWSF1 as of
(3:00 pm EDT)
1900 GMT on 05/22/2024:
     

Click on the graph icon in the table below to see a time series plot of the last five days of that observation.

* indicates interpolated rain values

Previous observations
5-day plot - Hourly Rain Accmulation -------- Ten-minute Rain Rates (Centered at hour + minutes) ---------
   TIME
(EDT)
  Hourly Accum
inches
0
inches/hour
10
inches/hour
20
inches/hour
30
inches/hour
40
inches/hour
50
inches/hour
2024-05-22 03:00 pm0.00- - - - - - 
2024-05-22 02:00 pm0.00- - - - - - 
2024-05-22 01:00 pm0.00- - - - - - 
2024-05-22 12:00 pm0.00- - - - - - 
2024-05-22 11:00 am0.00- - - - - - 
2024-05-22 10:00 am0.00- - - - - - 
2024-05-22 09:00 am0.00- - - - - - 
2024-05-22 08:00 am0.00- - - - - - 
2024-05-22 07:00 am0.00- - - - - - 
2024-05-22 06:00 am0.00- - - - - - 
2024-05-22 05:00 am0.00- - - - - - 
2024-05-22 04:00 am0.00- - - - - - 
2024-05-22 03:00 am0.00- - - - - - 
2024-05-22 02:00 am0.00- - - - - - 
2024-05-22 01:00 am0.00- - - - - - 
2024-05-22 12:00 am0.00- - - - - - 
2024-05-21 11:00 pm0.00- - - - - - 
2024-05-21 10:00 pm0.00- - - - - - 
2024-05-21 05:00 pm0.00- - - - - - 
2024-05-21 04:00 pm0.08- - - - - -